Regional Weather Roundup
Issued by NWS Wilmington, NC

Home | Current Version | Previous Version | Text Only | Print | Product List | Glossary On
Versions: 1 2 3 4 5 6 7 8 9 10 11 12 13 14 15 16 17 18 19 20 21 22 23 24 25 26 27 28 29 30 31 32 33 34 35 36 37 38 39 40 41 42 43 44 45 46 47 48 49 50
000
ASUS42 KILM 301910
RWRILM
RWRILM
REGIONAL HOURLY WEATHER ROUNDUP
NATIONAL WEATHER SERVICE WILMINGTON NC
300 PM EDT SAT AUG 30 2014

NOTE: "FAIR" INDICATES FEW OR NO CLOUDS BELOW 12,000 FEET WITH NO
SIGNIFICANT WEATHER AND/OR OBSTRUCTIONS TO VISIBILITY.

...............WFO WILMINGTON COUNTY WARNING AREA...............

......COASTAL NC AND SC COUNTIES......

CITY           SKY/WX    TMP DP  RH WIND       PRES   REMARKS
WILMINGTON     MOSUNNY   86  74  67 SE10      30.17F HX  94
SOUTHPORT      PTSUNNY   83  74  73 SE12      30.17F
N MYRTLE BEACH SUNNY     86  75  69 SE8       30.16F HX  95
MYRTLE BEACH   MOSUNNY   88  75  66 SE9       30.17F HX  97

......INLAND NC AND SC COUNTIES.......

CITY           SKY/WX    TMP DP  RH WIND       PRES   REMARKS
LUMBERTON      CLOUDY    87  76  69 SE6       30.14F HX  97
ELIZABETHTOWN  CLOUDY    80  74  82 SE7       30.17F
WHITEVILLE     MOSUNNY   87  72  62 SE5       30.15F HX  93
FLORENCE       SUNNY     91  64  40 SE6       30.14F HX  92
DARLINGTON     SUNNY     91  64  40 S3        30.14F HX  93

....................REST OF NORTH CAROLINA......................

.........EASTERN NC.........

CITY           SKY/WX    TMP DP  RH WIND       PRES   REMARKS
CAPE HATTERAS  NOT AVBL
JACKSONVILLE   PTSUNNY   81  72  74 S6        30.18F
MOREHEAD CITY  MOSUNNY   85  73  67 S12       30.18F HX  91
KENANSVILLE    MOSUNNY   86  72  62 SE7       30.17F HX  92
NEW BERN       PTSUNNY   89  68  49 SE6       30.18F HX  93
ELIZABETH CITY SUNNY     85  72  65 SE8       30.18F HX  91

.........CENTRAL NC.........

CITY           SKY/WX    TMP DP  RH WIND       PRES   REMARKS
RALEIGH DURHAM MOSUNNY   88  70  55 SE5       30.17F HX  93
ROCKY MOUNT    SUNNY     89  70  53 S6        30.17F HX  94
ROANOKE RAPIDS NOT AVBL
FAYETTEVILLE   MOSUNNY   91  70  49 CALM      30.14F HX  96
HOFFMAN        PTSUNNY   91  69  48 SE7       30.16F HX  95

.........WESTERN NC.........

CITY           SKY/WX    TMP DP  RH WIND       PRES   REMARKS
CHARLOTTE      PTSUNNY   89  64  43 S8        30.17F HX  90
GREENSBORO     MOSUNNY   89  68  49 VRB6      30.17F HX  93
HICKORY        NOT AVBL
BOONE          NOT AVBL
ASHEVILLE      NOT AVBL

.....................REST OF SOUTH CAROLINA.....................

.........EASTERN SC.........

CITY           SKY/WX    TMP DP  RH WIND       PRES   REMARKS
CHARLESTON     MOSUNNY   88  72  58 SE13      30.14F HX  94
BEAUFORT MCAS  PTSUNNY   91  75  59 S6        30.13F HX 101
HILTON HEAD    NOT AVBL

.........CENTRAL SC.........

CITY           SKY/WX    TMP DP  RH WIND       PRES   REMARKS
COLUMBIA       MOSUNNY   93  59  31 CALM      30.12F HX  92
ORANGEBURG     CLOUDY    92  65  40 SE8       30.13F HX  94
SUMTER SHAW    MOSUNNY   92  65  40 VRB6      30.12F HX  94

.........WESTERN SC.........

CITY           SKY/WX    TMP DP  RH WIND       PRES   REMARKS
GREENVILLE     NOT AVBL
ROCK HILL      SUNNY     89  68  49 VRB3      30.16F HX  93
ANDERSON       PTSUNNY   88  68  51 S3        30.13F HX  91
CLEMSON        NOT AVBL
GREENWOOD      PTSUNNY   92  65  40 E6        30.14F HX  94


...................COASTAL AND OFFSHORE REPORTS..................

................LOCAL PIERS AND NC RESERVE................


STATION/POSITION TIME  SKY/WX   TEMP    WIND        PRES    VSBY
                                AIR SEA DIR/SP/G
                 (UTC)          (F)     (DEG/KT/KT) (MB)    (MI)
JOHNY MRCER PIER 1900            83 84  130/ 11/ 12 1021.4F
NC RESRV MASNBRO 1800            87     120/  4     1022.0S
OCEAN CREST PIER 1900            82 85   90/ 12/ 14 1020.8F
SPRINGMAID  PIER 1900            83 82  110/  7/  8 1021.4F


................COASTAL AND OFFSHORE BUOYS................


STATION/POSITION TIME  SKY/WX   TEMP    WIND        PRES    VSBY
                                AIR SEA DIR/SP/G
                 (UTC)          (F)     (DEG/KT/KT) (MB)    (MI)
DIMNDSHOAL 41025 1900            80     170/  6/  8 1022.4F
WVE H/P(F/S)=  3/ 8 WND WVE H/P(F/S)=  2/ 3 SWL H/P/D(F/S/D)=  3/ 70/ 8

CAPE LOOKOUT     1800            79     160/  6/  6 1022.6F
ONSLOW BAY 41036 1900            81 83  110/  8/ 10 1022.4F
WVE H/P(F/S)=  2/ 8 SWL H/P/D(F/S/D)=  2/120/ 8

5 WRITEBCH 41038 1900            79 82  130/ 12/ 14   N/A
MASONBORO  41110 1900               82                N/A
WVE H/P(F/S)=  2/ 8 WND WVE H/P(F/S)=  2/ 8

WILM HARBR 41108 1900               83                N/A
WVE H/P(F/S)=  2/ 8 WND WVE H/P(F/S)=  2/ 8

27WRITEBCH 41037 1800            79 82  130/ 10/ 10 1022.3F
FRYING PAN 41013 NOT AVBL
SUNST NRSH 41024 1800            86     140/ 10/ 10 1021.6F
CAPRS NRSH 41029 1800            83     120/  8/ 10   N/A
EDISTO     41004 1900            83 84   90/  8/ 10 1020.5F
WVE H/P(F/S)=  2/ 9 WND WVE H/P(F/S)=  2/ 4 SWL H/P/D(F/S/D)=  2/ 9



..........OFFSHORE BUOYS BEYOND 100 NM OFFSHORE...........
.....IN A TRIANGLE---HAT TO BERMUDA TO BAHAMAS TO HAT.....


STATION/POSITION TIME  SKY/WX   TEMP    WIND        PRES    VSBY
                                AIR SEA DIR/SP/G
                 (UTC)          (F)     (DEG/KT/KT) (MB)    (MI)
150E HAT   41001 NOT AVBL
W BERMUDA  41048 1807            80 80   50/  8/ 10 1022.2
WVE H/P(F/S)=  4/ 9 WND WVE H/P(F/S)=  2/ 4 SWL H/P/D(F/S/D)=  5/130/ 9

ATLANTIC S 41049 1806            85 89   50/  2/  4 1020.4F
WVE H/P(F/S)=  5/ 8 SWL H/P/D(F/S/D)=  5/320/ 8

E BAHAMAS  41046 1832            80 85  120/ 14/ 17 1019.2F
WVE H/P(F/S)=  5/ 9 WND WVE H/P(F/S)=  3/ 6 SWL H/P/D(F/S/D)=  3/ 60/ 9

NE BAHAMAS 41047 1759            82 85   70/  6/  8 1021.0
WVE H/P(F/S)=  4/ 8 SWL H/P/D(F/S/D)=  5/130/ 8

120E CANVRL41010 1900            83 85   40/  6/  8 1020.2F
WVE H/P(F/S)=  3/ 8 WND WVE H/P(F/S)=  2/ 4 SWL H/P/D(F/S/D)=  3/100/ 8


END


USA.gov is the U.S. government's official web portal to all federal, state and local government web resources and services.